Home   Weather   Saint-Denis   Past weeks

Flag for France Past Weather in Saint-Denis, Île-de-France, France — Yesterday and Last 2 Weeks

Now
72 °F

Sunny.


Feels Like: 77 °F
Forecast: 59 / 79 °F
Wind: 7 mph from Northeast

Location: Paris Le Bourget Airport

Current Time: May 24, 2017 at 9:53:30 pm

Latest Report: May 24, 2017 at 9:00 pm


Visibility: 10 mi

Pressure: 30.24 "Hg

Humidity: 53%

Dew Point: 54 °F

Location of Saint-DenisLocation

Past Weather in Saint-Denis — Graph

°F

Saint-Denis Temperature Yesterday

Maximum temperature yesterday: 75 °F (at 4:30 pm)
Minimum temperature yesterday: 57 °F (at 6:00 am)
Average temperature yesterday: 66 °F

High & Low Weather Summary for the Past Weeks

 TemperatureHumidityPressure
High84 °F (May 17, 2:30 pm)94% (May 11, 9:30 pm)30.39 "Hg (May 11, 9:30 pm)
Low41 °F (May 10, 5:30 am)32% (May 16, 5:30 pm)29.39 "Hg (May 11, 4:00 pm)
Average62 °F68%30.00 "Hg
* Reported May 9 8:00 pm — May 24 8:30 pm, Saint-Denis. Weather by CustomWeather, © 2017

Note: Actual official high and low records may vary slightly from our data, if they occured in-between our weather recording intervals... More about our weather records

Advertising

Saint-Denis Weather History for the Previous 24 Hours

Scroll right to see more
 ConditionsComfort  
Time TempWeatherWind HumidityBarometerVisibility
8:30 pm
Wed, May 24
72 °FPassing clouds.8 mph57%30.24 "HgN/A
8:00 pm73 °FPassing clouds.9 mph53%30.24 "HgN/A
7:30 pm73 °FScattered clouds.7 mph53%30.24 "HgN/A
7:00 pm75 °FPartly sunny.6 mph50%30.24 "HgN/A
6:30 pm75 °FPartly sunny.8 mph50%30.24 "HgN/A
6:00 pm75 °FPartly sunny.6 mph54%30.24 "HgN/A
5:30 pm75 °FPartly sunny.7 mph50%30.24 "HgN/A
5:00 pm75 °FPartly sunny.7 mph54%30.24 "HgN/A
4:30 pm75 °FPartly sunny.6 mph50%30.24 "HgN/A
4:00 pm73 °FPartly sunny.3 mph57%30.27 "HgN/A
3:30 pm73 °FPartly sunny.5 mph53%30.27 "HgN/A
3:00 pm73 °FPartly sunny.6 mph57%30.27 "HgN/A
2:30 pm73 °FPartly sunny.6 mph57%30.27 "HgN/A
2:00 pm72 °FPartly sunny.7 mph57%30.27 "HgN/A
1:30 pm72 °FScattered clouds.6 mph57%30.27 "HgN/A
1:00 pm70 °FPartly sunny.7 mph60%30.27 "HgN/A
12:30 pm68 °FPartly sunny.7 mph64%30.30 "HgN/A
12:00 pm70 °FPartly sunny.7 mph64%30.30 "HgN/A
11:30 am68 °FPartly sunny.3 mph69%30.30 "HgN/A
11:00 am68 °FPartly sunny.5 mph73%30.30 "HgN/A
10:30 am64 °FMostly cloudy.2 mph78%30.30 "HgN/A
10:00 am64 °FOvercast.3 mph78%30.30 "HgN/A
9:30 am63 °FOvercast.3 mph88%30.30 "HgN/A
9:00 am63 °FMostly cloudy.3 mph83%30.30 "HgN/A
8:30 am61 °FOvercast.2 mph88%30.30 "HgN/A
8:00 am61 °FOvercast.2 mph88%30.30 "HgN/A
7:30 am61 °FOvercast.3 mph88%30.27 "HgN/A
7:00 am61 °FOvercast.3 mph88%30.27 "HgN/A
6:30 am61 °FOvercast.2 mph88%30.27 "HgN/A
6:00 am61 °FOvercast.2 mph88%30.27 "HgN/A
5:30 am61 °FOvercast.3 mph88%30.27 "HgN/A
5:00 am61 °FOvercast.3 mph88%30.27 "HgN/A
4:30 am59 °FPassing clouds.3 mph88%30.27 "HgN/A
4:00 am59 °FClear.3 mph88%30.27 "Hg10 mi
3:30 am61 °FPassing clouds.3 mph83%30.27 "HgN/A
3:00 am59 °FClear.3 mph88%30.24 "Hg10 mi
2:30 am59 °FClear.No wind88%30.27 "Hg10 mi
2:00 am61 °FClear.No wind83%30.27 "Hg10 mi
1:30 am61 °FClear.1 mph83%30.27 "Hg10 mi
1:00 am63 °FClear.No wind77%30.27 "Hg10 mi
12:30 am63 °FClear.2 mph83%30.27 "Hg10 mi
12:00 am64 °FPassing clouds.3 mph78%30.27 "HgN/A
11:30 pm
Tue, May 23
64 °FPassing clouds.6 mph78%30.27 "HgN/A
11:00 pm66 °FPassing clouds.7 mph73%30.24 "HgN/A
10:30 pm68 °FPassing clouds.5 mph64%30.24 "HgN/A
10:00 pm68 °FClear.7 mph69%30.24 "Hg10 mi
9:30 pm70 °FPassing clouds.7 mph60%30.24 "HgN/A
9:00 pm72 °FPassing clouds.6 mph57%30.21 "HgN/A
Weather by CustomWeather, © 2017

See weather overviewHow to use our weather pages